User: anonymous   Login
Location: Unspecified
(40.7945°N, 111.1337°W)
Time: 21:00:32
(UTC-06:00)
Language:

Vanguard 3 - Orbit

View from above orbital plane
View from above orbital plane
View from above satellite
View from above satellite

Ground track
Ground track

The orbit data is extracted from the following two-line orbital elements,

1    20U 59007A   19165.88918439 +.00000230 +00000-0 +98741-4 0  9993
2    20 033.3449 055.0436 1666853 111.6873 266.9045 11.55649316187958
Epoch (UTC): 14 June 2019 21:20:25
Eccentricity: 0.1666853
inclination: 33.3449°
perigee height: 508 km
apogee height: 3263 km
right ascension of ascending node: 55.0436°
argument of perigee: 111.6873°
revolutions per day: 11.55649316
mean anomaly at epoch: 266.9045°
orbit number at epoch: 18795

The dashed part of the orbit path shows where the satellite is in the earth's shadow,  

DLR